Temp
2 1 1 1 1 1 0 1 1 3 3 3 6 6 8 10 10 12 12 12 12 12 13 12 13 14 16 15 14 15 14 14 13 16 15 16 16 16 14 15 14 11 12 15
2 1 1 1 1 1 1 0 2 3 4 4 6 7 8 10 10 11 11 11 12 13 13 13 13 13 15 14 14 14 14 13 14 15 15 15 16 15 13 11 11 12 14 16
1 1 1 1 1 0 0 1 2 3 2 5 7 6 7 8 10 10 11 11 11 12 13 12 14 13 14 14 14 15 15 12 15 15 16 15 14 14 13 15 13 14 13 16
1 1 1 1 0 0 0 1 2 4 3 4 6 7 8 8 8 10 11 10 11 12 12 13 12 13 13 13 12 12 14 14 12 14 14 14 15 15 13 15 15 15 16 14
1 2 2 1 0 -0 0 0 2 5 5 5 5 6 7 8 9 10 9 10 11 11 11 12 13 13 13 13 11 12 11 13 12 13 12 13 14 14 14 14 13 14 14 14
1 1 1 0 -0 -0 -0 1 3 5 5 5 5 5 7 8 9 10 11 11 10 10 11 12 12 13 13 13 14 11 11 10 11 13 10 13 12 12 13 14 13 15 14 16
1 1 1 0 -0 -0 0 1 3 4 4 5 5 6 7 8 9 9 10 10 10 11 12 12 12 11 10 10 10 11 9 10 9 10 9 12 15 13 14 15 14 13 13 14
1 1 0 0 -0 -0 0 1 3 4 4 5 6 6 6 8 9 9 10 10 10 11 11 10 11 9 11 10 9 10 9 8 8 10 11 12 14 13 13 14 16 14 14 12
0 0 0 0 0 -0 -0 1 2 4 4 4 7 6 7 7 8 7 9 9 10 10 7 7 9 10 11 11 10 9 7 8 12 7 12 13 14 14 12 14 14 13 12 10
1 1 1 0 0 -0 0 1 2 3 2 3 5 7 6 7 8 7 7 9 8 9 5 6 8 10 11 10 10 9 9 8 10 7 11 11 12 12 13 13 16 12 11 10
1 1 0 0 0 -0 -0 0 2 2 1 2 3 6 7 7 8 6 7 8 8 5 7 7 7 7 9 9 10 9 11 10 9 8 9 13 11 11 13 14 13 14 10 10
1 0 0 1 0 -0 -0 -0 1 1 2 1 2 3 5 5 8 8 8 8 8 8 7 6 5 6 5 9 11 8 11 11 11 12 13 12 12 14 15 15 14 13 12 11
0 -0 0 0 0 -0 -1 -0 0 0 1 1 2 4 6 6 7 8 9 9 9 9 11 7 7 7 6 8 8 9 8 8 11 11 12 10 12 13 13 14 15 14 13 13
-0 -0 -0 -0 -0 -1 -1 -1 -0 0 1 2 3 4 5 6 7 8 9 10 10 10 10 6 5 7 7 7 9 8 9 9 9 10 10 9 11 12 14 14 14 13 12 13
-0 -0 -0 -0 -1 -1 -1 -1 0 1 1 2 3 5 6 7 8 8 8 9 9 10 7 4 7 5 6 3 5 7 8 9 10 11 14 14 14 16 13 13 13 13 13 11
-1 -1 -1 -1 -1 -1 -1 -2 -0 1 0 0 2 5 6 6 8 9 9 9 9 9 9 6 7 8 8 7 8 10 12 13 13 13 14 13 14 13 13 13 13 12 12 12
-1 -1 -1 -1 -1 -1 -0 -0 1 3 0 1 2 3 5 6 7 7 7 7 7 9 9 6 7 6 7 5 9 12 12 12 13 13 12 9 10 10 10 11 11 10 9 9
-1 -0 -1 -1 -0 0 -1 1 4 1 0 2 2 2 4 6 6 6 7 7 8 8 7 5 5 4 3 7 8 11 11 11 11 9 11 10 11 10 9 8 9 8 7 6
-1 -1 -1 -2 -1 -1 1 1 1 1 3 1 1 3 5 5 5 5 4 6 5 5 4 4 6 4 7 8 8 7 6 7 7 7 7 9 8 7 6 6 5 7 4 3
-1 -1 -1 0 0 1 2 1 2 2 4 4 2 4 4 5 4 3 3 3 4 6 5 4 5 6 5 5 6 6 6 7 7 6 2 1 2 2 2 2 3 4 3 2
-1 -0 1 1 1 1 1 1 1 1 2 3 4 4 4 5 4 4 3 2 2 6 6 6 5 6 3 3 4 5 5 6 7 7 7 5 3 3 3 2 2 2 1 1
1 1 2 2 3 2 1 1 0 1 3 2 3 4 4 4 5 3 2 3 2 6 3 5 6 2 1 1 3 3 4 4 5 4 7 5 3 2 3 2 0 0 -0 -1
2 4 3 2 0 2 2 3 3 2 0 1 2 2 4 4 4 1 2 4 4 1 4 4 2 1 0 0 1 2 3 1 3 4 3 2 1 1 2 0 -1 -1 -2 -3
2 1 1 1 1 0 -0 0 1 -0 0 1 2 1 2 2 2 1 4 2 2 4 4 3 1 -0 -1 -0 -0 1 0 0 1 0 0 -0 -0 -1 -2 -2 -2 -3 -3 -4
-1 -0 0 -0 -1 -1 -1 -1 -1 -1 0 1 2 2 3 1 2 1 2 4 3 1 1 -0 -1 -1 -1 -1 -1 -1 -1 -1 -1 -1 -1 -1 -2 -2 -3 -3 -3 -3 -4 -5
-2 -4 -3 -3 -2 -3 -3 -4 -2 -1 1 1 2 1 2 1 0 0 -0 1 -0 -1 -2 -2 -2 -2 -2 -2 -2 -2 -2 -1 -2 -2 -2 -3 -3 -3 -4 -4 -4 -5 -5 -6
-2 -3 -5 -5 -5 -5 -5 -5 -4 -1 0 0 -1 -2 -2 -1 -2 -3 -4 -3 -4 -6 -4 -4 -3 -3 -4 -3 -3 -3 -3 -3 -3 -3 -3 -3 -4 -4 -5 -6 -7 -7 -7 -7
Height
1356 1366 1377 1390 1402 1415 1426 1428 1433 1435 1453 1457 1446 1441 1442 1442 1442 1445 1447 1450 1456 1455 1452 1455 1456 1455 1452 1451 1457 1468 1470 1477 1491 1481 1478 1478 1479 1484 1491 1498 1505 1515 1513 1499
1340 1351 1363 1377 1389 1402 1413 1417 1424 1426 1438 1440 1434 1436 1437 1438 1438 1441 1443 1447 1450 1450 1451 1453 1450 1450 1446 1449 1453 1460 1467 1479 1487 1482 1482 1481 1480 1482 1487 1495 1500 1505 1503 1490
1324 1336 1349 1363 1376 1389 1402 1409 1414 1417 1426 1429 1427 1432 1431 1433 1435 1439 1439 1443 1449 1449 1450 1448 1447 1448 1446 1446 1449 1450 1454 1470 1471 1478 1475 1475 1482 1480 1482 1482 1495 1491 1491 1479
1312 1322 1335 1351 1364 1379 1391 1394 1396 1395 1401 1421 1423 1423 1422 1426 1428 1435 1440 1440 1445 1447 1453 1449 1448 1445 1447 1448 1450 1452 1453 1464 1470 1465 1465 1468 1467 1470 1477 1477 1475 1480 1473 1481
1301 1309 1323 1337 1353 1370 1381 1382 1384 1389 1384 1402 1420 1420 1413 1417 1424 1425 1432 1430 1438 1444 1448 1445 1445 1445 1447 1449 1452 1451 1453 1461 1464 1467 1468 1469 1469 1465 1468 1471 1475 1475 1473 1473
1292 1302 1309 1327 1343 1360 1368 1372 1376 1382 1382 1391 1408 1406 1412 1415 1421 1422 1425 1429 1436 1441 1439 1441 1442 1442 1444 1444 1447 1453 1453 1460 1466 1467 1473 1469 1475 1466 1464 1464 1464 1460 1468 1457
1283 1294 1301 1317 1334 1343 1354 1364 1374 1377 1381 1382 1390 1404 1415 1414 1413 1421 1427 1430 1436 1439 1440 1442 1442 1441 1441 1441 1443 1444 1454 1457 1463 1472 1476 1477 1450 1451 1453 1454 1454 1455 1454 1452
1276 1288 1297 1311 1328 1342 1354 1362 1369 1376 1382 1382 1388 1400 1409 1414 1418 1422 1422 1428 1434 1436 1437 1442 1443 1448 1443 1443 1444 1444 1445 1453 1469 1468 1467 1458 1451 1451 1451 1452 1443 1444 1447 1450
1270 1283 1293 1307 1324 1341 1353 1362 1371 1376 1380 1383 1386 1393 1401 1409 1412 1420 1422 1428 1433 1437 1440 1445 1442 1440 1442 1444 1443 1444 1446 1448 1448 1471 1462 1458 1442 1438 1440 1445 1445 1436 1440 1445
1267 1280 1291 1307 1322 1338 1350 1359 1369 1378 1384 1384 1385 1384 1395 1405 1409 1414 1421 1427 1433 1438 1442 1447 1444 1436 1432 1443 1441 1445 1449 1453 1450 1464 1454 1446 1435 1436 1439 1454 1435 1429 1431 1437
1266 1278 1291 1307 1322 1337 1349 1360 1370 1376 1381 1381 1383 1385 1387 1396 1403 1409 1416 1429 1428 1433 1437 1440 1436 1436 1429 1437 1433 1432 1434 1442 1448 1457 1455 1445 1428 1436 1439 1426 1426 1426 1428 1432
1267 1281 1295 1309 1323 1338 1349 1359 1368 1375 1380 1383 1381 1382 1383 1389 1394 1403 1407 1405 1411 1416 1424 1428 1429 1430 1434 1429 1430 1428 1428 1421 1426 1428 1424 1418 1417 1416 1418 1420 1422 1423 1425 1430
1273 1287 1301 1314 1327 1339 1348 1359 1369 1375 1384 1381 1381 1378 1381 1384 1386 1394 1396 1400 1402 1403 1406 1411 1414 1418 1419 1426 1426 1422 1420 1418 1417 1420 1412 1413 1413 1413 1415 1417 1419 1420 1423 1427
1283 1296 1308 1320 1331 1342 1351 1362 1370 1380 1386 1388 1377 1373 1376 1379 1381 1385 1390 1394 1396 1399 1402 1402 1405 1408 1407 1413 1409 1415 1409 1412 1414 1415 1410 1411 1409 1408 1410 1413 1416 1417 1422 1428
1292 1303 1314 1324 1335 1347 1356 1368 1374 1380 1387 1383 1373 1371 1369 1371 1375 1380 1386 1391 1392 1395 1399 1400 1400 1398 1403 1410 1410 1410 1403 1402 1407 1405 1393 1394 1395 1399 1405 1409 1412 1415 1418 1425
1301 1311 1322 1332 1342 1349 1358 1369 1374 1375 1380 1386 1378 1371 1367 1368 1370 1374 1378 1383 1388 1391 1391 1393 1392 1391 1393 1401 1400 1390 1388 1389 1390 1389 1393 1394 1394 1396 1400 1405 1409 1413 1417 1420
1311 1321 1330 1339 1347 1354 1361 1364 1363 1371 1383 1382 1379 1372 1365 1365 1366 1369 1371 1378 1383 1388 1390 1389 1390 1392 1391 1392 1388 1384 1384 1385 1386 1387 1393 1395 1394 1395 1398 1402 1405 1410 1415 1420
1318 1326 1335 1343 1351 1358 1359 1360 1362 1374 1379 1378 1374 1369 1365 1363 1364 1366 1367 1371 1379 1382 1382 1386 1387 1391 1391 1386 1377 1378 1381 1382 1383 1386 1387 1390 1390 1392 1397 1401 1404 1408 1413 1417
1324 1330 1340 1350 1356 1359 1360 1363 1369 1375 1377 1375 1376 1373 1367 1363 1364 1365 1365 1366 1376 1380 1380 1382 1385 1388 1382 1373 1371 1372 1376 1379 1378 1380 1389 1387 1391 1391 1395 1398 1402 1405 1410 1416
1331 1338 1344 1351 1354 1358 1360 1369 1372 1373 1373 1369 1368 1367 1365 1365 1365 1365 1366 1367 1374 1375 1377 1378 1379 1376 1374 1374 1372 1372 1374 1379 1379 1382 1390 1391 1388 1393 1396 1400 1404 1408 1411 1416
1337 1340 1343 1348 1355 1360 1363 1366 1368 1369 1367 1362 1361 1362 1360 1363 1364 1364 1367 1372 1376 1371 1372 1373 1374 1373 1376 1375 1375 1376 1377 1376 1374 1386 1386 1390 1397 1394 1395 1401 1409 1413 1417 1420
1334 1339 1344 1352 1356 1358 1362 1362 1364 1364 1356 1354 1355 1358 1360 1361 1361 1364 1372 1373 1375 1366 1372 1370 1370 1381 1380 1378 1377 1376 1377 1380 1377 1387 1382 1388 1397 1400 1399 1405 1410 1414 1419 1424
1340 1342 1345 1349 1354 1354 1352 1351 1350 1350 1352 1352 1352 1356 1357 1359 1359 1364 1368 1369 1369 1373 1370 1373 1384 1384 1382 1380 1379 1377 1375 1388 1382 1377 1387 1393 1399 1403 1405 1406 1412 1417 1422 1428
1339 1342 1349 1351 1352 1353 1354 1351 1349 1350 1349 1349 1350 1353 1354 1358 1362 1365 1364 1372 1372 1374 1376 1383 1389 1387 1385 1383 1381 1377 1382 1386 1384 1388 1391 1396 1400 1404 1410 1414 1419 1424 1430 1434
1344 1347 1353 1356 1358 1355 1353 1350 1350 1348 1347 1347 1349 1352 1354 1361 1363 1367 1370 1369 1381 1393 1396 1396 1391 1388 1387 1386 1385 1385 1389 1392 1392 1394 1398 1402 1405 1410 1416 1422 1426 1430 1433 1437
1351 1362 1364 1364 1362 1361 1356 1352 1349 1347 1347 1347 1351 1358 1364 1374 1378 1381 1392 1391 1406 1410 1407 1402 1396 1394 1394 1392 1392 1392 1393 1396 1399 1403 1406 1410 1415 1419 1422 1427 1432 1435 1438 1441
1368 1376 1375 1369 1366 1365 1363 1358 1355 1351 1352 1359 1364 1376 1387 1386 1393 1406 1413 1419 1422 1418 1412 1407 1404 1403 1401 1400 1400 1401 1402 1406 1409 1412 1416 1419 1422 1424 1427 1431 1436 1440 1444 1446
Wind_Speed
53 51 51 45 40 36 38 28 7 17 25 20 14 19 11 7 11 5 2 3 4 3 3 6 7 11 9 18 16 9 6 5 4 6 1 1 3 4 4 3 4 1 1 5
54 52 54 48 44 43 44 18 14 20 36 14 16 14 15 9 8 10 7 5 5 1 1 3 6 6 6 17 9 10 7 1 2 2 1 2 3 4 4 4 3 6 4 5
53 52 59 52 49 46 46 15 8 17 35 43 22 18 20 19 19 11 7 4 3 2 3 3 2 5 3 15 7 13 15 4 6 10 6 5 4 6 6 5 3 4 6 6
45 54 60 55 54 51 49 16 7 16 14 23 22 20 14 26 12 11 19 6 12 2 5 3 4 2 1 3 6 6 5 7 6 5 5 6 6 5 10 10 7 7 8 9
45 55 62 59 56 53 45 11 8 13 18 36 25 14 21 26 24 16 13 9 14 14 7 7 5 4 2 3 1 6 1 5 5 3 3 6 5 7 10 10 2 8 7 8
45 45 62 61 60 60 34 28 25 18 17 21 18 24 19 18 20 15 15 15 3 7 17 17 14 16 10 6 3 2 4 7 4 4 2 3 5 7 10 5 5 5 8 11
46 44 67 62 63 65 38 31 25 14 6 13 19 20 18 22 24 12 20 16 12 6 17 9 1 5 2 6 3 7 6 4 2 3 2 5 3 2 3 11 5 9 5 5
46 45 66 62 64 65 45 35 24 12 4 10 14 18 24 14 23 19 18 14 11 8 5 2 4 3 3 1 1 4 3 5 3 5 5 3 2 5 7 7 14 10 13 6
47 47 65 58 60 66 49 34 33 19 7 3 21 18 23 16 11 7 19 10 16 3 2 2 5 5 2 4 3 3 4 3 4 3 5 9 5 4 8 4 12 8 12 11
45 60 68 56 60 68 44 34 30 21 5 5 16 15 18 28 12 5 8 18 7 10 2 2 4 4 7 3 7 6 3 2 6 3 3 6 6 5 12 6 14 13 22 23
50 66 53 55 59 66 42 30 40 24 2 7 5 13 22 23 33 9 11 11 9 3 5 4 3 3 5 3 3 6 7 7 4 3 2 8 12 8 10 8 5 15 20 28
59 53 55 69 55 66 46 31 24 21 15 5 7 14 17 21 36 30 29 11 11 14 4 3 2 2 1 6 8 0 4 6 6 9 7 2 25 8 23 7 8 11 25 32
56 52 56 60 60 58 43 27 29 17 15 25 13 19 16 21 27 40 13 11 15 12 17 6 3 4 4 4 6 2 3 4 3 3 5 7 14 23 11 16 13 11 27 37
49 49 49 51 52 46 39 30 25 24 7 5 6 2 18 14 27 35 42 9 22 7 11 4 3 4 7 4 3 4 3 8 6 3 5 3 16 20 21 16 15 15 24 31
50 48 45 43 40 39 34 26 19 18 17 3 9 16 17 15 23 31 37 34 16 15 4 2 3 4 4 1 2 3 7 6 5 6 17 10 12 28 22 19 18 21 28 28
42 38 37 35 36 40 29 10 23 27 40 6 3 5 8 8 14 25 36 37 35 15 4 4 4 3 4 5 4 5 23 17 15 1 8 20 10 20 24 23 23 25 28 30
33 33 32 30 27 29 23 8 10 36 25 5 2 3 4 3 6 7 20 31 21 16 10 4 2 3 3 2 5 4 14 23 18 14 11 9 16 12 23 24 26 25 25 25
34 32 32 32 29 27 13 6 16 32 15 4 2 3 4 0 3 3 7 14 15 12 8 4 3 2 1 4 5 8 9 14 15 16 21 12 21 18 25 25 26 27 28 30
34 34 36 34 24 13 5 9 26 23 5 5 3 1 2 3 2 2 2 6 2 3 2 3 7 2 5 4 6 15 16 13 15 17 12 13 21 25 27 29 30 32 33 34
38 38 12 7 15 14 21 15 11 8 8 5 2 3 2 2 1 2 1 5 2 3 3 9 3 3 2 1 2 7 13 11 8 15 10 14 21 25 26 27 28 30 34 34
33 9 6 17 21 9 2 4 4 3 2 8 8 12 2 5 2 2 4 2 2 3 3 4 3 2 2 5 3 8 12 13 14 9 6 12 17 29 30 27 26 29 30 32
12 13 26 27 9 4 3 3 2 4 4 4 4 6 7 3 3 4 2 2 2 3 3 3 2 2 8 0 7 9 9 10 14 7 4 9 19 24 26 27 29 29 28 28
29 12 5 4 1 1 5 5 3 3 2 3 5 2 4 3 4 3 2 3 2 4 1 2 2 5 4 4 9 12 7 10 13 16 17 20 24 24 26 30 28 27 28 28
4 3 4 2 1 2 1 1 1 1 2 3 6 4 2 4 3 0 3 1 1 1 2 3 3 4 4 7 11 16 16 13 19 23 25 27 27 26 24 24 25 26 25 21
4 5 3 3 5 7 7 3 1 5 4 4 4 5 6 3 3 3 1 3 5 5 4 4 15 6 4 7 10 15 19 21 23 23 24 24 25 26 27 25 22 19 19 18
6 10 6 11 2 5 7 13 9 14 9 8 8 3 4 6 3 5 6 4 5 5 5 16 9 6 6 10 13 16 18 20 22 23 25 26 27 27 25 21 17 15 15 17
5 5 24 11 4 8 12 17 20 13 6 3 3 6 5 3 4 4 5 4 5 18 17 16 11 11 13 16 18 20 23 25 26 26 24 23 21 21 21 20 18 16 15 13
Wind_Direction
232 229 224 217 213 211 206 184 184 194 192 203 204 214 188 201 208 171 142 129 226 224 240 181 185 196 212 181 148 158 187 147 174 200 81 121 153 174 161 138 196 162 239 256
228 223 221 210 206 201 189 189 183 167 184 204 207 210 207 207 189 207 158 190 218 111 305 222 190 193 224 169 150 155 176 182 157 314 101 38 197 183 147 109 99 192 199 253
223 218 216 205 201 198 186 176 173 163 186 211 220 196 204 198 205 229 192 151 219 178 292 207 251 205 229 187 205 201 148 144 171 224 222 166 193 192 184 153 161 185 222 251
221 213 212 204 196 196 183 188 197 202 173 207 221 208 197 195 185 205 198 185 230 169 205 283 231 135 92 120 169 151 149 187 181 224 209 183 199 181 177 199 202 197 239 213
221 207 205 202 192 192 187 173 175 199 172 199 214 230 205 196 194 173 209 186 199 207 227 215 176 90 109 225 233 161 194 188 152 188 146 205 232 207 196 217 224 245 238 242
214 206 196 199 188 183 190 202 198 192 199 175 199 213 211 200 187 215 201 198 207 187 224 247 290 284 242 190 148 211 170 140 138 220 91 148 284 210 192 193 204 191 213 231
208 208 193 195 186 191 191 189 192 186 178 178 197 190 219 209 199 186 213 187 196 245 255 281 10 51 65 180 193 176 157 136 108 155 115 226 249 101 204 219 238 219 252 230
203 201 188 192 186 192 191 190 189 196 191 194 184 191 200 208 207 208 182 186 157 212 357 101 185 322 8 196 82 182 203 134 118 152 201 296 210 200 180 177 251 215 228 196
196 194 187 190 185 189 191 193 190 194 198 223 199 178 190 201 195 173 200 184 206 249 84 127 208 186 149 239 149 107 87 62 159 153 189 223 191 209 161 119 271 198 190 177
193 188 192 185 184 185 185 188 182 184 168 230 204 189 191 195 197 164 151 189 203 211 140 183 210 200 135 226 178 169 121 45 170 156 216 285 245 143 141 155 262 195 190 173
182 183 186 182 180 180 173 172 195 190 157 295 290 196 175 179 203 186 146 156 220 135 170 177 199 193 179 167 230 181 164 157 176 113 142 261 160 120 173 218 212 216 188 176
177 183 175 184 184 181 181 176 182 197 200 253 309 239 208 208 199 179 173 184 162 186 167 189 109 164 153 145 238 15 218 194 178 191 205 204 183 205 201 202 226 209 190 179
173 169 175 178 180 181 183 179 189 197 204 283 253 247 208 210 198 194 177 196 176 195 201 169 186 193 136 158 224 215 236 182 175 121 210 218 210 221 217 228 236 228 198 182
165 168 176 181 185 184 192 185 201 203 153 271 284 339 237 223 213 204 205 211 207 184 197 193 161 166 189 201 206 216 194 144 162 261 265 285 241 226 224 224 221 203 187 184
167 170 169 169 173 176 180 175 189 208 192 305 303 278 297 210 206 203 209 212 217 212 188 143 223 141 135 140 114 235 200 171 169 211 210 193 227 220 210 208 199 190 184 179
158 159 161 165 167 173 164 179 208 199 217 305 294 292 277 189 197 210 204 208 222 222 184 196 228 224 199 165 193 243 205 204 214 200 236 209 223 193 198 197 192 190 189 189
149 153 159 162 163 162 162 204 209 201 199 228 246 265 219 188 199 206 195 209 207 214 222 231 173 223 224 143 195 240 221 218 216 224 210 186 195 192 187 192 184 183 180 178
151 154 156 159 164 175 213 112 165 185 203 196 291 266 308 75 150 151 142 166 185 202 188 157 160 194 236 247 202 209 235 211 209 200 204 242 205 187 184 184 179 172 170 168
151 159 160 154 169 180 193 155 149 171 238 179 171 271 280 21 70 68 144 145 126 180 160 185 159 166 222 242 195 198 201 198 194 191 212 190 191 178 177 178 175 173 163 164
135 136 135 136 169 146 108 127 174 189 218 234 213 223 261 193 238 97 2 44 135 159 206 145 179 238 268 326 304 209 198 195 172 156 158 173 167 171 168 171 171 173 164 163
145 156 147 147 143 135 133 140 152 182 240 212 212 204 221 191 138 121 15 110 341 182 191 174 185 258 356 341 156 168 177 164 147 203 195 198 205 178 171 164 167 166 164 163
165 124 128 135 166 138 159 189 167 217 218 196 169 176 200 178 160 100 146 139 122 237 146 134 167 18 343 303 152 146 150 171 166 194 184 185 190 182 167 163 162 163 160 155
129 138 128 155 117 177 186 187 210 187 191 188 161 149 149 134 80 78 110 159 174 352 30 79 41 354 24 130 145 141 117 195 156 140 155 163 164 163 166 157 156 155 151 149
82 68 80 16 357 25 11 303 314 123 144 141 141 114 121 81 71 276 101 81 108 52 26 49 11 42 82 129 136 130 137 142 138 144 147 151 151 146 145 144 143 143 139 140
70 50 60 51 5 2 7 322 67 20 58 124 112 69 65 41 69 29 86 51 58 23 5 344 344 14 69 98 118 131 139 138 132 134 137 136 135 132 128 129 131 136 138 140
56 42 355 351 17 3 9 5 11 25 44 56 51 70 66 44 33 50 17 50 40 352 327 336 1 50 93 110 121 121 122 123 124 124 124 125 128 128 126 128 131 138 150 158
46 39 17 12 21 13 1 6 350 17 47 47 49 50 28 344 56 48 20 30 341 323 353 29 52 81 98 110 112 113 116 118 118 118 119 121 124 128 131 132 136 146 149 153